Location: Arapaho Elementary School
(32.9607°N, 96.7625°W)
Time: 13:10:59
(UTC+00:00)

Cosmos 2228 Rocket - Pass Details

Date: 05 July 2022
Orbit: 618 x 651 km, 82.5° (Epoch: 13 August)

Event Time Altitude Azimuth Distance (km) Brightness Sun altitude
Rises 09:35:39 0° 360° (N) 2,919 7.2 -19.1°
Reaches altitude 10° 09:37:56 10° 5° (N) 2,013 6.4 -18.7°
Maximum altitude 09:42:16 51° 81° (E) 799 3.9 -18.1°
Drops below altitude 10° 09:46:38 10° 158° (SSE) 2,020 5.5 -17.4°
Enters shadow 09:47:47 - 161° (SSE) 2,468 5.9 -17.3°
